Hourly Weather Aqtobe

Today, 29 September, Tuesday

Time Temperature Precipitation Wind Pressure Humidity
00:00 +13°C° 0 mm 2 mps 753 mmHg 59%
01:00 +13°C° 0 mm 1 mps 753 mmHg 63%
02:00 +12°C° 0 mm 1 mps 753 mmHg 64%
03:00 +12°C° 0 mm 2 mps 753 mmHg 65%
04:00 +12°C° 0 mm 2 mps 753 mmHg 62%
05:00 +12°C° 0 mm 2 mps 753 mmHg 61%
06:00 +12°C° 0 mm 2 mps 754 mmHg 60%
07:00 +11°C° 0 mm 3 mps 754 mmHg 59%
08:00 +13°C° 0 mm 3 mps 754 mmHg 53%
09:00 +15°C° 0 mm 4 mps 754 mmHg 47%
10:00 +18°C° 0 mm 4 mps 754 mmHg 40%
11:00 +19°C° 0 mm 4 mps 754 mmHg 37%
12:00 +19°C° 0 mm 4 mps 754 mmHg 35%
13:00 +20°C° 0 mm 4 mps 754 mmHg 32%
14:00 +20°C° 0 mm 4 mps 753 mmHg 32%
15:00 +20°C° 0 mm 4 mps 753 mmHg 32%
16:00 +20°C° 0 mm 4 mps 753 mmHg 32%
17:00 +19°C° 0 mm 4 mps 753 mmHg 36%
18:00 +17°C° 0 mm 3 mps 753 mmHg 41%
19:00 +16°C° 0 mm 3 mps 753 mmHg 46%
20:00 +14°C° 0 mm 3 mps 753 mmHg 48%
21:00 +13°C° 0 mm 4 mps 753 mmHg 50%
22:00 +13°C° 0 mm 4 mps 753 mmHg 52%
23:00 +12°C° 0 mm 3 mps 753 mmHg 50%

Tomorrow, 30 September, Wednesday

Time Temperature Precipitation Wind Pressure Humidity
00:00 +12°C° 0 mm 3 mps 753 mmHg 49%
01:00 +11°C° 0 mm 3 mps 753 mmHg 47%
02:00 +11°C° 0 mm 3 mps 753 mmHg 48%
03:00 +11°C° 0 mm 3 mps 753 mmHg 48%
04:00 +10°C° 0 mm 3 mps 753 mmHg 49%
05:00 +10°C° 0 mm 3 mps 753 mmHg 49%
06:00 +10°C° 0 mm 3 mps 753 mmHg 49%
07:00 +10°C° 0 mm 3 mps 753 mmHg 49%
08:00 +12°C° 0 mm 3 mps 753 mmHg 44%
09:00 +16°C° 0 mm 3 mps 754 mmHg 39%
10:00 +18°C° 0 mm 4 mps 754 mmHg 33%
11:00 +18°C° 0 mm 4 mps 753 mmHg 32%
12:00 +19°C° 0 mm 4 mps 753 mmHg 31%
13:00 +20°C° 0 mm 4 mps 753 mmHg 30%
14:00 +20°C° 0 mm 4 mps 753 mmHg 32%
15:00 +20°C° 0 mm 4 mps 753 mmHg 35%
16:00 +20°C° 0 mm 5 mps 753 mmHg 37%
17:00 +18°C° 0 mm 4 mps 752 mmHg 44%
18:00 +17°C° 0 mm 4 mps 752 mmHg 51%
19:00 +15°C° 0 mm 4 mps 752 mmHg 57%
20:00 +14°C° 0 mm 4 mps 752 mmHg 62%
21:00 +13°C° 0 mm 4 mps 752 mmHg 67%
22:00 +13°C° 0 mm 4 mps 753 mmHg 72%
23:00 +12°C° 0 mm 4 mps 752 mmHg 73%

Day after tomorrow, 1 October, Thursday

Time Temperature Precipitation Wind Pressure Humidity
00:00 +11°C° 0 mm 4 mps 752 mmHg 74%
01:00 +11°C° 0 mm 3 mps 752 mmHg 76%
02:00 +11°C° 0 mm 3 mps 752 mmHg 75%
03:00 +11°C° 0 mm 3 mps 752 mmHg 75%
04:00 +11°C° 0 mm 3 mps 753 mmHg 74%
05:00 +10°C° 0 mm 3 mps 753 mmHg 74%
06:00 +10°C° 0 mm 3 mps 753 mmHg 74%
07:00 +10°C° 0 mm 4 mps 753 mmHg 74%
08:00 +11°C° 0 mm 4 mps 753 mmHg 65%
09:00 +13°C° 0 mm 5 mps 753 mmHg 56%
10:00 +15°C° 0 mm 6 mps 753 mmHg 47%
11:00 +15°C° 0 mm 6 mps 752 mmHg 44%
12:00 +16°C° 0 mm 6 mps 752 mmHg 42%
13:00 +17°C° 0 mm 5 mps 752 mmHg 39%
14:00 +17°C° 0 mm 5 mps 752 mmHg 38%
15:00 +17°C° 0 mm 5 mps 752 mmHg 38%
16:00 +17°C° 0 mm 5 mps 751 mmHg 37%
17:00 +17°C° 0 mm 4 mps 751 mmHg 38%
18:00 +15°C° 0 mm 4 mps 751 mmHg 39%
19:00 +13°C° 0 mm 4 mps 751 mmHg 40%
20:00 +13°C° 0 mm 4 mps 752 mmHg 43%
21:00 +12°C° 0 mm 4 mps 752 mmHg 46%
22:00 +11°C° 0 mm 4 mps 752 mmHg 49%
23:00 +11°C° 0 mm 3 mps 752 mmHg 51%

2 October, Friday

Time Temperature Precipitation Wind Pressure Humidity
00:00 +10°C° 0 mm 3 mps 752 mmHg 53%
01:00 +10°C° 0 mm 3 mps 751 mmHg 55%
02:00 +9°C° 0 mm 3 mps 752 mmHg 56%
03:00 +9°C° 0 mm 3 mps 752 mmHg 57%
04:00 +8°C° 0 mm 3 mps 752 mmHg 59%
05:00 +8°C° 0 mm 3 mps 752 mmHg 59%
06:00 +8°C° 0 mm 3 mps 752 mmHg 60%
07:00 +8°C° 0 mm 3 mps 752 mmHg 61%
08:00 +10°C° 0 mm 3 mps 752 mmHg 54%
09:00 +12°C° 0 mm 4 mps 752 mmHg 48%
10:00 +14°C° 0 mm 4 mps 752 mmHg 41%
11:00 +15°C° 0 mm 4 mps 752 mmHg 39%
12:00 +17°C° 0 mm 4 mps 751 mmHg 36%
13:00 +18°C° 0 mm 4 mps 751 mmHg 33%
14:00 +18°C° 0 mm 4 mps 751 mmHg 31%
15:00 +18°C° 0 mm 3 mps 751 mmHg 28%
16:00 +18°C° 0 mm 3 mps 751 mmHg 26%
17:00 +17°C° 0 mm 3 mps 751 mmHg 28%
18:00 +14°C° 0 mm 3 mps 751 mmHg 31%
19:00 +13°C° 0 mm 3 mps 751 mmHg 33%
20:00 +12°C° 0 mm 3 mps 751 mmHg 34%
21:00 +12°C° 0 mm 3 mps 751 mmHg 36%
22:00 +11°C° 0 mm 3 mps 751 mmHg 37%
23:00 +10°C° 0 mm 2 mps 751 mmHg 38%

3 October, Saturday

Time Temperature Precipitation Wind Pressure Humidity
00:00 +10°C° 0 mm 2 mps 750 mmHg 40%
01:00 +9°C° 0 mm 2 mps 750 mmHg 41%
02:00 +9°C° 0 mm 2 mps 750 mmHg 44%
03:00 +9°C° 0 mm 1 mps 750 mmHg 48%
04:00 +9°C° 0 mm 1 mps 750 mmHg 51%
05:00 +9°C° 0 mm 1 mps 750 mmHg 53%
06:00 +9°C° 0 mm 1 mps 750 mmHg 55%
07:00 +9°C° 0 mm 1 mps 750 mmHg 56%
08:00 +11°C° 0 mm 1 mps 750 mmHg 50%
09:00 +13°C° 0 mm 0 mps 750 mmHg 43%
10:00 +15°C° 0 mm 0 mps 750 mmHg 37%
11:00 +16°C° 0 mm 0 mps 750 mmHg 34%
12:00 +18°C° 0 mm 1 mps 750 mmHg 32%
13:00 +19°C° 0 mm 1 mps 750 mmHg 30%
14:00 +20°C° 0 mm 1 mps 750 mmHg 29%
15:00 +19°C° 0 mm 2 mps 750 mmHg 29%
16:00 +19°C° 0 mm 2 mps 749 mmHg 29%
17:00 +18°C° 0 mm 2 mps 749 mmHg 34%
18:00 +16°C° 0 mm 2 mps 749 mmHg 38%
19:00 +15°C° 0 mm 2 mps 749 mmHg 43%
20:00 +14°C° 0 mm 2 mps 749 mmHg 47%
21:00 +14°C° 0 mm 2 mps 749 mmHg 51%
22:00 +13°C° 0 mm 2 mps 749 mmHg 54%
23:00 +13°C° 0 mm 2 mps 749 mmHg 58%

4 October, Sunday

Time Temperature Precipitation Wind Pressure Humidity
00:00 +13°C° 0 mm 2 mps 750 mmHg 61%
01:00 +12°C° 0 mm 2 mps 750 mmHg 65%
02:00 +12°C° 0 mm 2 mps 750 mmHg 67%
03:00 +12°C° 0 mm 2 mps 750 mmHg 69%
04:00 +10°C° 0 mm 2 mps 749 mmHg 71%
05:00 +10°C° 0 mm 2 mps 750 mmHg 73%
06:00 +10°C° 0 mm 2 mps 750 mmHg 75%
07:00 +10°C° 0 mm 2 mps 750 mmHg 77%
08:00 +12°C° 0 mm 2 mps 750 mmHg 70%
09:00 +14°C° 0 mm 2 mps 750 mmHg 62%
10:00 +16°C° 0 mm 2 mps 750 mmHg 55%
11:00 +17°C° 0 mm 2 mps 750 mmHg 49%
12:00 +17°C° 0 mm 2 mps 750 mmHg 44%
13:00 +18°C° 0 mm 2 mps 750 mmHg 39%
14:00 +18°C° 0 mm 2 mps 750 mmHg 37%
15:00 +19°C° 0 mm 2 mps 750 mmHg 35%
16:00 +19°C° 0 mm 2 mps 750 mmHg 33%
17:00 +17°C° 0 mm 2 mps 750 mmHg 37%
18:00 +16°C° 0 mm 2 mps 750 mmHg 40%
19:00 +15°C° 0 mm 2 mps 750 mmHg 44%
20:00 +14°C° 0 mm 2 mps 750 mmHg 48%
21:00 +13°C° 0 mm 2 mps 750 mmHg 52%
22:00 +13°C° 0 mm 2 mps 750 mmHg 56%
23:00 +12°C° 0 mm 2 mps 750 mmHg 60%
Show more

We Need Your Consent

Meteoprog and our Service Providers may store and access personal data such as cookies, device identifiers or other similar technologies on your device and process such data to personalise content and ads, as well as provide social media features and to analyse the traffic.

  • Store and/or access information on your device

    Cookies, device identifiers or other information can be stored or accessed on your device for the purposes indicated above.

  • Personalised ads and content, ad and content measurement, audience insights, and products development

    Ads and content can be personalised based on a profile. More data can be added to better personalise ads and content. Ad and content performance can be measured. Insights about the audience who saw the ads and content can be derived. Such data can be used to develop or improve user’s experience, systems and software.

By clicking ‘I Agree’ you will allow the use of indicated cookies, device identifiers, web beacons or other similar technologies. Your settings can be changed in the browser on your device.

For certain purposes, legitimate interests may be relied on, rather than consent. You can read more about this in our Privacy and Cookie Policy.